EHI
5 6 7 6 3 2 2 3 5 5 4 4 3 3 3 3 4 5 5 4 3 3 3 3 3 3 3 3 3 2 1 0 0 0 0 0 1 1 2 3 2 2 2
4 6 8 7 5 3 2 3 4 5 5 4 3 3 3 3 4 5 5 4 3 3 3 3 3 3 2 2 1 1 0 0 0 0 0 1 2 2 3 3 2 1 2
4 5 6 8 7 5 2 2 4 5 5 5 4 3 3 3 4 5 5 4 3 3 3 3 2 1 1 0 0 0 0 0 0 0 0 1 2 3 3 2 2 1 1
3 3 4 8 9 7 3 2 3 4 5 5 4 3 3 3 3 4 4 3 3 3 2 1 1 0 0 0 0 0 0 0 0 0 0 0 1 2 1 1 1 0 0
3 3 4 7 9 7 3 1 2 3 4 5 5 4 3 3 3 3 3 3 3 3 1 0 0 0 0 0 0 0 0 0 0 0 0 0 0 0 0 0 0 0 0
4 4 5 8 8 6 2 1 1 2 4 4 5 5 4 3 4 3 3 3 3 2 1 0 0 0 0 0 0 0 0 0 0 0 0 0 0 0 0 0 0 0 0
5 5 6 7 6 4 3 2 1 2 4 5 6 6 5 4 5 4 3 3 3 1 0 0 0 0 0 0 0 0 0 0 0 0 0 0 0 0 0 0 0 0 0
4 4 5 6 4 4 3 1 0 1 4 6 7 7 6 5 6 5 4 3 2 1 0 0 0 0 0 0 0 0 0 0 0 0 0 0 0 0 0 0 0 0 0
3 3 4 4 3 2 2 1 0 2 4 6 6 6 6 6 6 6 5 3 1 0 0 0 0 0 0 0 0 0 0 0 0 0 0 0 0 0 0 0 0 0 0
3 3 3 3 1 1 1 1 1 2 3 3 2 3 4 6 6 6 4 2 1 0 0 0 0 0 0 0 0 0 0 0 0 0 0 0 0 0 0 0 0 0 0
3 3 2 2 1 0 1 1 1 1 1 1 0 1 3 5 5 4 2 1 0 0 0 0 0 0 0 0 0 0 0 0 0 0 0 0 0 0 0 0 0 0 0
2 1 1 1 1 1 1 1 2 1 0 0 1 1 2 4 4 3 1 0 0 0 0 0 0 0 0 0 0 0 0 0 0 0 0 0 0 0 0 0 0 0 0
1 0 0 1 2 2 2 2 2 2 1 1 2 2 3 4 4 3 1 1 0 0 0 0 0 0 0 0 0 0 0 0 0 0 0 0 0 0 0 0 0 0 0
0 0 0 1 2 3 3 3 3 2 1 1 3 4 5 5 4 4 3 2 1 0 0 0 0 0 0 0 0 0 0 0 0 0 0 0 0 0 0 0 0 0 0
0 0 0 1 2 3 3 3 3 2 1 0 2 4 6 6 6 5 4 3 2 1 0 0 0 0 0 0 0 0 0 0 0 0 0 0 0 0 0 0 0 0 0
0 0 0 0 2 3 3 3 2 1 0 0 1 2 4 5 5 4 3 3 2 1 0 0 0 0 0 0 0 0 0 0 0 0 0 0 0 0 0 0 0 0 0
0 0 0 0 2 3 3 3 2 1 0 0 0 1 1 3 4 3 3 3 1 0 0 0 0 0 0 0 0 0 0 0 0 0 0 0 0 0 0 0 0 0 0
1 0 0 0 1 2 3 3 2 1 0 0 0 0 1 1 2 3 3 2 1 0 0 0 0 0 0 0 0 0 0 0 0 0 0 0 0 0 0 0 0 0 0
1 0 0 0 0 1 1 2 1 0 0 1 2 2 1 1 1 3 3 2 1 0 0 0 0 0 0 0 0 0 0 0 0 0 0 0 0 0 0 0 0 0 0
1 0 0 0 0 0 0 0 0 0 0 1 3 3 1 0 1 2 3 2 1 0 0 0 0 0 0 0 0 0 0 0 0 0 0 0 0 0 0 0 0 0 0
0 0 0 0 0 0 0 0 0 0 0 1 2 3 2 1 0 1 1 1 1 0 0 0 0 0 0 0 0 0 0 0 0 0 0 0 0 0 0 0 0 0 0
0 0 0 0 0 0 0 0 0 0 0 1 1 1 2 2 1 0 0 0 0 0 0 0 0 0 0 0 0 0 0 0 0 0 0 0 0 0 0 0 0 0 0
0 0 0 0 0 0 0 0 0 0 0 0 0 0 1 2 1 0 0 0 0 0 0 0 0 0 0 0 0 0 0 0 0 0 0 0 0 0 0 0 0 0 0
0 0 0 0 0 0 0 0 0 0 0 0 0 0 0 1 1 0 0 0 0 0 0 0 0 0 0 0 0 0 0 0 0 0 0 0 0 0 0 0 0 0 0
0 0 0 0 0 0 0 0 0 0 0 0 0 0 0 0 0 0 0 0 0 0 0 0 0 0 0 0 0 0 0 0 0 0 0 0 0 0 0 0 0 0 0
0 0 0 0 0 0 0 0 0 0 0 0 0 0 0 0 0 0 0 0 0 0 0 0 0 0 0 0 0 0 0 0 0 0 0 0 0 0 0 0 0 0 0
Wind_Speed
5 5 6 6 6 6 7 7 8 8 9 8 9 9 10 10 11 10 10 10 10 11 11 12 12 13 13 14 14 14 14 14 13 13 13 14 14 14 14 13 12 9 14
6 6 6 6 6 6 6 7 7 8 8 8 8 9 9 10 10 10 10 9 10 10 11 11 12 12 13 13 13 13 12 12 11 10 10 11 13 14 14 13 13 9 14
7 7 6 6 6 6 6 6 6 7 7 7 8 8 8 9 9 9 9 9 9 10 11 11 11 12 12 12 11 11 11 10 8 8 6 5 8 13 13 13 13 13 13
8 6 6 6 6 6 6 6 6 6 6 7 7 7 7 8 8 8 9 9 9 9 10 10 10 11 11 11 10 10 9 7 6 5 5 6 6 12 13 13 13 13 13
7 6 6 6 6 6 6 6 6 6 6 6 6 7 7 7 8 8 8 8 9 9 9 9 10 10 10 9 9 9 8 7 6 4 5 6 6 11 12 12 12 12 12
6 7 6 6 6 6 6 6 6 5 5 5 6 6 6 7 7 7 7 7 8 8 8 9 9 9 9 8 8 7 6 6 4 4 5 6 5 10 12 12 11 11 11
6 6 6 5 6 6 6 5 5 5 5 5 5 5 6 6 6 6 7 7 7 7 8 8 8 8 8 7 7 6 5 5 3 4 5 5 6 11 11 10 10 10 10
5 6 6 6 6 6 5 5 5 5 4 5 5 5 5 5 6 6 6 6 6 6 7 7 7 7 7 6 6 5 4 4 4 5 5 5 8 10 10 10 10 9 10
5 5 4 4 5 5 5 4 4 4 4 4 4 4 4 5 5 6 6 5 5 5 5 6 6 6 6 5 4 4 4 4 3 3 5 4 7 9 8 8 8 8 8
4 4 4 3 3 3 3 3 4 4 3 3 3 3 3 4 5 5 5 5 5 4 5 5 6 6 5 4 3 2 3 3 3 4 3 4 7 8 7 7 7 7 7
4 3 3 3 3 2 2 3 3 3 3 3 2 3 3 2 3 3 4 4 4 4 5 5 6 6 5 3 1 1 2 1 3 4 3 6 7 7 7 7 7 7 7
2 2 2 2 2 2 2 2 1 1 1 1 1 1 1 1 2 3 4 4 3 3 4 4 5 4 3 2 1 1 0 2 3 3 3 7 6 6 6 6 6 5 5
2 2 2 2 2 1 1 1 0 0 1 1 1 1 1 1 2 2 2 2 2 2 2 3 3 2 1 2 1 0 1 2 2 3 4 7 6 5 5 5 5 5 5
2 2 2 2 2 2 2 1 1 1 1 0 0 1 1 1 1 1 1 1 1 1 1 2 1 2 2 2 1 1 2 1 2 2 3 6 5 4 4 4 4 4 4
2 2 2 2 2 2 2 1 1 1 1 1 1 0 1 1 1 2 1 2 1 1 1 1 1 2 2 1 1 2 2 2 3 3 2 5 4 3 3 3 2 2 2
2 2 2 2 2 2 1 1 1 1 1 1 1 1 1 1 1 2 2 2 1 1 1 1 2 2 2 1 1 2 2 2 3 3 3 3 3 3 2 2 1 1 1
2 2 1 1 1 1 1 1 1 1 1 1 1 1 1 1 1 2 2 2 1 1 1 1 1 1 1 1 1 1 1 1 2 2 3 2 1 1 1 1 1 1 1
2 2 1 1 1 1 1 1 0 1 1 1 1 1 1 1 2 2 2 1 1 1 1 1 1 1 1 1 1 1 1 1 1 2 2 2 2 1 1 1 1 1 1
2 2 2 1 2 1 1 1 1 1 1 1 1 1 1 1 2 2 2 2 2 1 1 1 1 1 1 1 1 1 1 1 1 1 1 2 2 1 1 0 0 1 2
2 2 2 2 2 1 1 1 1 1 0 0 1 1 1 1 2 2 2 2 2 2 1 1 1 1 1 1 1 1 1 1 1 1 1 1 1 1 1 1 1 1 2
2 2 2 2 2 1 1 1 1 1 0 0 1 2 2 2 1 2 2 3 2 2 2 2 1 2 1 1 1 1 1 1 2 1 1 1 1 1 1 1 1 1 1
2 2 2 2 1 1 1 0 1 1 1 1 1 1 2 2 2 2 3 2 2 2 2 2 2 1 1 1 2 1 1 1 1 1 1 1 1 1 1 1 1 1 1
2 1 1 1 1 1 1 1 1 1 1 1 1 1 1 2 2 2 2 2 2 2 2 2 2 3 1 1 2 2 2 1 1 2 1 1 1 1 1 1 1 1 1
1 1 1 1 1 1 1 1 2 1 1 1 1 1 1 2 1 2 1 1 2 2 2 2 2 2 3 1 0 0 1 1 1 1 2 1 1 1 1 1 1 1 1
2 2 1 1 1 1 1 2 2 2 1 1 2 2 2 1 1 1 2 1 1 1 2 2 2 2 2 2 2 1 0 1 1 1 2 2 2 2 1 1 1 1 1
2 2 2 2 2 2 2 2 2 2 2 2 2 1 1 1 1 1 2 1 1 1 1 2 2 3 2 2 1 1 1 1 1 1 2 2 2 2 2 1 1 1 1
Wind_Direction
96 110 110 97 93 90 88 88 84 84 83 87 89 89 86 83 81 82 87 90 88 87 88 87 86 83 82 80 78 76 75 76 75 75 76 78 79 78 78 74 74 75 77
115 115 112 101 99 98 94 90 85 86 83 85 90 88 87 85 84 82 83 90 89 88 89 89 88 87 85 83 81 79 78 78 77 74 74 78 80 79 77 75 76 78 78
109 113 115 102 101 103 99 98 94 91 88 87 92 92 91 89 86 84 82 85 91 91 91 91 90 88 87 85 83 81 79 76 70 67 65 80 82 80 78 78 79 78 78
110 113 112 103 102 104 103 100 99 96 92 91 94 95 94 95 91 87 86 84 90 95 95 93 92 90 87 85 85 82 79 67 59 58 66 72 76 79 78 79 80 79 77
109 110 107 105 106 106 107 106 99 97 94 95 97 100 96 99 96 92 91 88 86 96 100 97 94 92 89 87 84 81 74 59 51 52 68 70 72 80 79 78 78 79 77
103 104 109 106 107 106 108 110 107 101 97 99 99 102 99 100 99 94 94 91 88 93 100 98 96 93 91 88 84 76 63 45 38 64 72 73 76 82 80 78 77 79 78
103 108 114 104 104 103 103 105 105 105 104 104 103 108 108 106 105 100 97 97 92 94 101 102 100 97 93 89 83 70 51 35 56 69 72 72 80 86 83 81 79 78 78
104 110 118 103 100 97 97 94 94 102 105 105 107 112 117 112 112 113 108 106 101 97 104 106 107 105 98 90 80 56 36 45 67 79 77 73 81 85 86 81 79 78 75
95 106 119 120 107 95 91 91 96 99 101 102 104 105 111 110 114 120 116 114 110 106 110 111 112 111 105 96 82 48 19 20 56 74 83 79 84 86 84 81 79 75 74
93 101 116 118 118 118 109 100 93 95 101 105 107 108 114 120 122 123 122 119 118 115 117 121 119 119 116 111 92 32 357 22 73 78 74 80 83 86 84 82 81 77 73
87 95 106 115 119 122 125 112 106 103 107 109 112 117 124 141 140 130 119 116 116 119 125 128 130 122 123 134 131 347 344 65 85 82 76 85 87 85 83 81 82 79 73
79 84 87 89 92 100 110 110 123 146 142 129 119 133 148 141 139 125 121 119 117 123 136 137 136 132 132 151 153 332 29 71 84 86 83 90 90 89 85 82 82 81 76
107 73 73 77 79 79 77 106 94 83 118 110 115 127 143 123 118 116 127 117 117 125 141 140 144 163 154 135 145 188 65 69 85 88 87 90 88 90 89 86 81 79 78
96 79 69 67 62 55 58 68 93 91 101 120 106 112 114 115 121 129 130 135 140 143 128 146 172 169 136 138 157 113 88 94 96 97 96 93 87 86 92 93 87 85 80
91 67 63 65 70 61 55 43 46 51 90 82 89 120 106 124 144 137 134 127 132 121 124 157 161 144 137 152 148 109 100 96 100 99 100 92 91 87 92 91 91 86 77
103 83 58 64 66 81 77 52 40 32 57 78 101 127 122 131 140 141 140 132 137 131 143 152 158 152 155 142 134 114 100 104 105 106 112 97 88 89 100 97 82 71 38
123 118 95 83 72 76 92 78 57 52 53 81 93 136 134 128 134 129 135 136 143 133 138 118 126 124 131 124 122 118 107 95 103 121 124 124 114 84 91 100 74 40 358
122 125 121 110 94 66 66 75 83 97 89 92 93 117 140 137 135 132 132 129 115 108 117 124 112 104 115 125 127 127 120 117 112 122 116 118 126 120 88 66 14 335 320
124 120 124 121 110 89 82 83 47 76 91 96 102 114 135 145 150 141 140 129 122 118 106 111 110 109 114 132 150 140 129 127 133 115 126 130 127 131 149 147 329 323 312
117 119 121 105 97 94 104 117 95 62 52 77 105 99 98 114 133 135 130 129 126 117 100 100 116 110 114 140 154 142 177 171 144 135 143 129 127 131 133 145 171 277 294
112 110 114 116 104 97 117 151 171 190 141 44 93 107 112 100 105 133 130 140 134 131 137 123 96 111 84 80 70 37 308 193 166 163 161 150 167 164 178 171 179 192 269
116 118 115 107 111 111 120 169 171 136 128 130 93 99 107 100 86 106 127 134 138 135 125 121 107 94 77 78 99 106 12 327 306 214 182 192 209 197 220 220 207 195 199
121 134 130 131 131 139 138 123 101 81 91 103 89 86 72 83 85 92 119 128 129 140 143 136 132 116 121 46 77 118 133 222 282 276 230 197 209 233 240 234 230 214 201
112 102 113 122 128 142 150 140 133 137 138 143 126 117 93 89 80 81 87 121 132 136 145 148 135 125 133 152 215 15 132 158 170 279 283 260 236 240 248 289 276 251 228
94 116 130 121 128 128 117 124 123 118 128 107 98 96 94 93 93 89 91 82 108 129 147 150 142 140 145 161 162 160 322 337 254 180 262 291 295 265 260 252 250 259 245
85 110 128 120 107 109 110 116 125 124 112 101 92 90 89 83 83 77 104 101 90 94 120 155 162 168 171 171 165 149 157 177 218 203 239 264 271 269 273 254 249 250 250